Regional Weather Roundup
Issued by NWS

Home | Current Version | Previous Version | Text Only | Print | Product List | Glossary Off
Versions: 1 2 3 4 5 6 7 8 9 10 11 12 13 14 15 16 17 18 19 20 21 22 23 24 25 26 27 28 29 30 31 32 33 34 35 36 37 38 39 40 41 42 43 44 45 46 47 48 49 50

000
ASUS43 KDMX 292207
RWRIA

WEATHER ROUNDUP FOR IOWA
NATIONAL WEATHER SERVICE DES MOINES IA
500 PM CDT SUN MAR 29 2015

NOTE: "FAIR" INDICATES FEW OR NO CLOUDS BELOW 12,000 FEET WITH NO
SIGNIFICANT WEATHER AND/OR OBSTRUCTIONS TO VISIBILITY.

* - THESE STATIONS ARE NOT NWS STATIONS...THUS NOT UNDER NWS
QUALITY CONTROL.  THEY ALSO DO NOT REPORT WEATHER SUCH
AS PRECIPITATION OR FOG.

IAZ001>003-012>014-020>022-031>034-043>046-292300-
   NORTHWEST IOWA

CITY           SKY/WX    TMP DP  RH WIND       PRES   REMARKS
CARROLL *      SUNNY     61  25  25 NW28G39   29.97R
CHEROKEE *     SUNNY     59  21  23 NW17G36   29.99R
DENISON *      SUNNY     61  25  25 NW24G33   29.98R
LE MARS *      SUNNY     61  21  21 N24G36    30.01S
ORANGE CITY *  SUNNY     61  16  17 N23G30    30.00R
SHELDON *      SUNNY     59  23  25 NW32G43   29.97R
SIOUX CITY     SUNNY     63  21  20 N22G36    30.01R
SPENCER        SUNNY     59  22  24 NW28G41   29.95R
STORM LAKE *   SUNNY     59  21  23 NW29G38   29.98R
$$

IAZ055>058-069>071-079>083-090>094-292300-
   SOUTHWEST IOWA

CITY           SKY/WX    TMP DP  RH WIND       PRES   REMARKS
ATLANTIC *     SUNNY     59  32  36 NW24G32   30.00S
AUDUBON *      SUNNY     61  25  25 NW20G28   29.99R
CLARINDA *     SUNNY     59  34  38 N18G26    30.04R
COUNCIL BLFS * SUNNY     61  32  33 NW17G28   30.03R
CRESTON *      SUNNY     57  36  44 NW29G36   29.99R
HARLAN  *      SUNNY     61  27  27 NW26G37   30.04R
LAMONI         SUNNY     58  38  47 NW28G36   29.97R
RED OAK *      SUNNY     61  32  33 NW16G26   30.02S
SHENANDOAH *   SUNNY     61  34  36 NW16G28   30.04S
$$

IAZ047>049-059>061-072>074-084-292300-
   CENTRAL IOWA

CITY           SKY/WX    TMP DP  RH WIND       PRES   REMARKS
AMES           SUNNY     61  24  24 N26G36    29.92R
ANKENY *       SUNNY     61  28  29 NW30G39   29.92R
CHARITON *     MOSUNNY   59  37  44 NW28G37   29.94R
DES MOINES     MOSUNNY   63  27  25 N24G37    29.93R
GRINNELL*      SUNNY     59  32  36 NW25G39   29.89R
KNOXVILLE *    MOSUNNY   59  34  38 NW26G35   29.90R
MARSHALLTOWN   SUNNY     58  31  35 NW30G39   29.88R
PELLA *        SUNNY     61  39  44 NW28G38   29.91R
PERRY *          N/A     61  27  27 NW26G35   29.94R
$$

IAZ004>006-015-016-023>025-035-036-292300-
   NORTH CENTRAL IOWA

CITY           SKY/WX    TMP DP  RH WIND       PRES   REMARKS
ALGONA *       SUNNY     57  25  28 NW26G38   29.92R
CLARION *      SUNNY     57  28  33 NW30G43   29.89R
ESTHERVILLE    SUNNY     57  23  26 NW35G45   29.92R
FORT DODGE *   SUNNY     59  28  31 NW18G28   29.94R
MASON CITY     SUNNY     56  28  34 NW29G41   29.86R
FOREST CITY *  SUNNY     54  23  30 NW23G38   29.87R
IOWA FALLS *     N/A     57  30  35 NW33G44   29.90R
$$

IAZ007>011-017>019-026>030-037>042-050>054-066-292300-
   NORTHEAST IOWA

CITY           SKY/WX    TMP DP  RH WIND       PRES   REMARKS
CEDAR RAPIDS   MOSUNNY   57  39  51 NW29G39   29.83R
CHARLES CITY * SUNNY     54  32  43 NW32G44   29.83R
CLINTON *      PTSUNNY   54  41  62 W25G33    29.79R
DECORAH *      SUNNY     46  37  71 W15G24    29.78S
DUBUQUE        PTSUNNY   50  39  66 NW25G33   29.79R
MONTICELLO *   CLOUDY    55  41  58 W30G37    29.80R
OELWEIN *      MOSUNNY   54  39  58 NW26G33   29.83R
WATERLOO       SUNNY     57  32  38 NW26G37   29.84R
$$

IAZ064-065-067-068-078-292300-
   EAST CENTRAL IOWA

CITY           SKY/WX    TMP DP  RH WIND       PRES   REMARKS
DAVENPORT      CLOUDY    54  40  59 W22G33    29.80R
IOWA CITY      MOSUNNY   58  39  49 NW30G41   29.85R
MT. PLEASANT * CLOUDY    57  41  54 W23G31    29.86S
MUSCATINE *    CLOUDY    59  41  51 NW29G36   29.83R
QUAD CITIES    CLOUDY    55  40  56 SW18      29.79S
$$

IAZ062-063-075>077-085>089-095>099-292300-
   SOUTHEAST IOWA

CITY           SKY/WX    TMP DP  RH WIND       PRES   REMARKS
BURLINGTON     CLOUDY    57  42  57 W12       29.85S
FAIRFIELD *    PTSUNNY   57  41  54 NW23G33   29.88R
FORT MADISON * CLOUDY    57  43  58 W7        29.88R
KEOKUK *       CLOUDY    59  43  55 W14G21    29.87F
OSKALOOSA *      N/A     59  39  47 NW24G38   29.90R
CENTERVILLE *  MOSUNNY   59  41  51 W22G31    29.95R
OTTUMWA        MOSUNNY   59  39  47 NW21G29   29.89R
WASHINGTON *   CLOUDY    59  43  55 NW23G37   29.86R
$$

ABBREVIATIONS USED IN REMARKS
   TC - TEMPERATURES IN CELSIUS
  WCI - WIND CHILL INDEX
   HX - HEAT INDEX
  VSB - VISIBILITY
$$




USA.gov is the U.S. government's official web portal to all federal, state and local government web resources and services.